#timestamp,LO_Frequency,Hit,StdDev 
1590490815.5,286046999.3,N
1590490835.3,286046998.6,N
1590490855.1,286046999.9,N
1590490875.9,286046998.5,N
1590490895.7,286046999.6,N
1590490915.6,286046999.2,N
1590490935.4,286046999.4,N
1590490955.2,286046999.5,N
1590490975.1,286046999.3,N
1590490976.0,286046999.3,N
1590490995.8,286046997.4,N
1590491015.7,286046999.5,N
1590491035.5,286046997.1,N
1590491055.3,286046997.2,N
1590491075.2,286046997.3,N
1590491095.9,286046994.9,Y
1590491115.7,286046996.8,P
1590491135.6,286046996.9,P
1590491155.4,286046997.2,P
1590491175.3,286046996.8,Y
1590491195.1,286047000.8,P
1590491196.0,286047000.8,N
1590491215.8,286046998.4,N
1590491235.7,286046999.2,N
1590491255.5,286046996.5,N
1590491275.3,286046997.4,N
1590491295.2,286046995.3,N
1590491315.0,286046993.4,Y
1590491315.9,286046993.4,P
1590491335.8,286046998.0,N
1590491355.6,286046994.9,N
1590491375.4,286046998.0,N
1590491395.3,286046997.8,N
1590491415.1,286046997.7,N
1590491435.9,286046996.7,N
1590491455.7,286046999.1,N
1590491475.5,286046999.5,N
1590491495.4,286046999.6,N
1590491515.2,286046999.6,N
1590491535.0,286046998.6,N
1590491535.9,286046998.6,N
1590491555.8,286046999.3,N
1590491575.6,286046998.6,N
1590491595.4,286046998.1,N
1590491615.3,286046998.6,N
1590491635.1,286046998.2,N
1590491655.9,286046998.9,N
1590491675.7,286046998.2,N
1590491695.5,286046996.7,N
1590491715.4,286046999.6,N
1590491735.2,286046997.8,N
1590491755.0,286046995.3,Y
1590491756.0,286046995.3,P
1590491775.8,286046999.3,N
1590491795.6,286046999.4,N
1590491815.5,286046999.2,N
1590491835.3,286046998.7,N
1590491855.1,286046999.0,N
1590491875.9,286046999.6,N
1590491895.7,286047000.4,N
1590491915.5,286046998.2,N
1590491935.4,286046998.7,N
1590491955.2,286046997.2,N
1590491975.1,286046995.6,Y
1590491976.0,286046995.6,P
1590491995.8,286046997.9,N
1590492015.6,286046996.2,N
1590492035.5,286046993.9,Y
1590492055.3,286046997.3,P
1590492075.2,286046996.0,P
1590492095.9,286046996.4,P
1590492115.7,286046993.7,Y
1590492135.6,286046996.9,P
1590492155.4,286046998.1,P
1590492175.2,286046998.1,P
1590492195.1,286046999.0,N
1590492196.0,286046999.0,N
1590492215.8,286046999.5,N
1590492235.7,286046997.4,N
1590492255.5,286046997.0,Y
1590492275.3,286046999.1,P
1590492295.2,286046998.4,P
1590492315.0,286047000.6,N
1590492315.9,286047000.6,N
1590492335.8,286047002.4,N
1590492355.6,286046998.2,N
1590492375.4,286047000.4,N
1590492395.3,286047001.5,N
1590492415.1,286047001.4,N
1590492435.8,286047003.8,N
1590492455.7,286047003.9,N
1590492475.5,286047003.1,N
1590492495.4,286047001.6,N
1590492515.2,286047003.9,N
1590492535.0,286047006.5,Y
1590492535.9,286047006.5,P
1590492555.8,286047006.9,N
1590492575.6,286047006.0,N
1590492595.4,286047005.4,N
1590492615.3,286047003.4,N
1590492635.1,286047004.4,N
1590492655.9,286047002.1,N
1590492675.7,286047002.5,N
1590492695.5,286047000.8,N
1590492715.4,286046998.3,N
1590492735.2,286046998.7,N
1590492755.0,286046998.2,N
1590492755.9,286046998.2,N
1590492775.8,286046999.4,N
1590492795.6,286047000.9,N
1590492815.5,286047001.0,N
1590492835.3,286047000.0,N
1590492855.1,286046998.5,N
1590492875.9,286047002.7,N
1590492895.7,286047000.4,N
1590492915.5,286047000.0,N
1590492935.4,286047003.6,N
1590492955.2,286047002.4,N
1590492975.0,286047001.1,N
1590492976.0,286047001.1,N
1590492995.8,286046998.9,N
1590493015.6,286046999.2,N
1590493035.5,286046996.6,N
1590493055.3,286046997.4,N
1590493075.1,286046997.6,N
1590493095.9,286046996.8,N
1590493115.7,286046997.8,N
1590493135.5,286046997.4,N
1590493155.4,286046997.1,N
1590493175.2,286046997.4,N
1590493195.1,286046997.0,N
1590493196.0,286046997.0,N
1590493215.8,286046996.5,N
1590493235.6,286046999.6,N
1590493255.5,286047001.2,N
1590493275.3,286047000.3,N
1590493295.1,286047000.5,N
1590493315.9,286047000.3,N
1590493335.7,286047001.0,N
1590493355.6,286047001.1,N
1590493375.4,286046998.7,N
1590493395.2,286046999.4,N
1590493415.1,286046998.4,N
1590493416.0,286046998.4,N
1590493435.8,286046997.0,N
1590493455.6,286046999.6,N
1590493475.5,286046999.0,N
1590493495.3,286046998.7,N
1590493515.1,286046999.0,N
1590493535.9,286046999.3,N
1590493555.7,286046999.3,N
1590493575.6,286046999.6,N
1590493595.4,286046999.5,N
1590493615.2,286046997.1,N
1590493635.1,286046997.7,N
1590493636.0,286046997.7,N
1590493655.8,286046997.1,N
1590493675.6,286046997.1,N
1590493695.5,286046996.9,N
1590493715.3,286046996.9,N
1590493735.2,286046996.5,N
1590493755.9,286046999.5,N
1590493775.7,286046999.5,N
1590493795.6,286046998.3,N
1590493815.4,286047001.1,N
1590493835.2,286046998.1,N
1590493855.1,286046999.6,N
1590493856.0,286046999.6,N
1590493875.8,286047001.2,N
1590493895.7,286046998.1,N
1590493915.5,286047000.8,N
1590493935.3,286046998.1,N
1590493955.2,286046996.7,N
1590493975.0,286046996.5,N
1590493975.9,286046996.5,N
1590493995.8,286046997.6,N
1590494015.6,286046997.3,N
1590494035.4,286046999.5,N
1590494055.3,286047001.2,N
1590494075.1,286046998.3,N
1590494095.8,286046999.0,N
1590494115.7,286046998.4,N
1590494135.5,286046998.5,N
1590494155.4,286046998.8,N
1590494175.2,286046999.0,N
1590494195.0,286046999.2,N
1590494195.9,286046999.2,N
1590494215.8,286046997.3,N
1590494235.6,286046997.3,N
1590494255.4,286046997.8,N
1590494275.3,286046997.5,N
1590494295.1,286046996.9,N
1590494315.9,286046997.2,N
1590494335.7,286046995.4,Y
1590494355.5,286046997.1,P
1590494375.4,286046999.5,N
1590494395.2,286046999.3,N
